Regional Weather Roundup
Issued by NWS

Home | Current Version | Previous Version | Text Only | Print | Product List | Glossary On
Versions: 1 2 3 4 5 6 7 8 9 10 11 12 13 14 15 16 17 18 19 20 21 22 23 24 25 26 27 28 29 30 31 32 33 34 35 36 37 38 39 40 41 42 43 44 45 46 47 48 49 50
000
ASUS43 KTOP 291908
RWRKS

WEATHER ROUNDUP FOR KANSAS
NATIONAL WEATHER SERVICE GOODLAND KS
200 PM CDT WED OCT 29 2014

NOTE:  "FAIR" INDICATES FEW OR NO CLOUDS BELOW 12,000 FEET WITH NO
SIGNIFICANT WEATHER AND/OR OBSTRUCTIONS TO VISIBILITY.

KSZ001>006-013>018-027>032-041>047-292000-
NORTHWEST KANSAS

CITY           SKY/WX    TMP DP  RH WIND       PRES   REMARKS
GOODLAND       SUNNY     70  21  15 W7        30.11F
HAYS           SUNNY     70  39  32 SW13G20   30.12F
HILL CITY      SUNNY     68  37  32 S12G18    30.11F
RUSSELL        SUNNY     67  37  33 S13G23    30.11F
$$

KSZ061>065-074>080-084>089-292000-
SOUTHWEST KANSAS

CITY           SKY/WX    TMP DP  RH WIND       PRES   REMARKS
DODGE CITY     SUNNY     69  35  28 SW20G30   30.14F
ELKHART          N/A     68  40  36 SW10        N/A
GARDEN CITY    SUNNY     69  39  33 SW22G29   30.12F
GREAT BEND     SUNNY     70  39  32 S17       30.13F
LIBERAL        SUNNY     70  39  32 S15       30.16F
PRATT          SUNNY     70  32  24 SW15      30.17F
$$

KSZ066>073-081>083-090>101-292000-
SOUTHEAST KANSAS

CITY           SKY/WX    TMP DP  RH WIND       PRES   REMARKS
CHANUTE        SUNNY     63  37  38 S5        30.21F
COFFEYVILLE    SUNNY     67  37  33 VRB3      30.20F
HUTCHINSON     SUNNY     70  34  26 SW10G20   30.16F
MEDICINE LODGE   N/A     70  32  24 S12G22    30.17F
NEWTON         SUNNY     66  34  30 SW8       30.20F
PARSONS        SUNNY     66  38  35 SE5       30.22F
WICHITA INTL   SUNNY     70  31  23 S9        30.17F
WICHITA JABRA  SUNNY     69  32  25 S6        30.17F
WICHITA MCCONL SUNNY     69  30  23 S8        30.18F
WINFIELD       SUNNY     70  34  26 SW7       30.19F
$$

KSZ007>012-019>026-033>040-048>060-102>105-292000-
NORTHEAST KANSAS

CITY           SKY/WX    TMP DP  RH WIND       PRES   REMARKS
CONCORDIA      SUNNY     61  32  33 SE14      30.15F
EMPORIA        SUNNY     62  34  35 VRB6      30.20F
LAWRENCE       SUNNY     59  32  36 CALM      30.21F
MANHATTAN      SUNNY     62  32  32 SE6       30.18F
MARYSVILLE     SUNNY     57  34  41 S6        30.18F
OLATHE IND     SUNNY     58  33  39 CALM      30.21F
OLATHE EXE     SUNNY     59  31  34 VRB3      30.20F
SALINA         SUNNY     66  34  30 S10       30.17F
TOPEKA BILLARD SUNNY     61  33  35 VRB5      30.20F
TOPEKA FORBES  SUNNY     60  34  37 E6        30.20F
$$



USA.gov is the U.S. government's official web portal to all federal, state and local government web resources and services.